Espace membre
Imprimable
Lapugnoy, 15/02/2015, FRA - Trail des Givrés
Liste des rapports > 27km - Classement
Recherche: Page: [1]
169 Entrées
 
Les réclamations ne sont plus acceptées, les résultats sont considérés comme définitifs.
RangNrNomAgeIOCEquipeRéelTempsTkmMoy.ScrLocalité
1.7101POTTEEUW HAROLD43FRACLL ARMENTIERES1:46:481:46:483:58 15.174BAILLEUL
2.7256LOEUILLIEUX STÉPHANE46FRATEAM TRAIL 621:49:271:49:274:04 14.809QUESQUES
3.7467REDHEAD CHRISTOPHER43FRAOLYMPIQUE AIRE SUR LA LYS1:49:421:49:424:04 14.7710MAMETZ
4.7515MORTREUX FRANCK47FRAT W V1:57:131:57:144:21 13.8224ANNEQUIN
5.7531DERYCKE FREDDY43FRATEAMRRM1:57:361:57:384:22 13.7727BRUAY LA BUISSIERE
6.7415DUTOIT DAVID45FRAJOGGING CLUB DE BILLY BER1:59:021:59:034:25 13.6130LORGIES
7.7170GAIGNEUR DIMITRI40FRAARTOIS ATHLETISME BETHUNE1:59:131:59:134:25 13.5931CAUCOURT
8.7004DOLET STEPHANE41LUXDENAIN AC2:02:432:02:444:33 13.2039PECQUENCOURT
9.7382MEAUSOONE ARNAUD44FRAOAH HAZEBROUCK2:04:302:04:314:37 13.0142GODEWAERSVELDE
10.7053ROKIA VALERY41FRAAC VILLENEUVE D'ASCQ2:04:482:04:524:38 12.9846ILLIES
11.7291VANDINGENEN ROMUALD47FRACOURIR À BAISIEUX2:05:022:05:154:39 12.9447WANNEHAIN
12.7326CALLENS JOHN49BELKTDC2:06:452:06:554:43 12.7651HEULE
13.7453DELESTREZ LUDOVIC42FRACLLL ARMENTIÈRES2:07:412:07:474:44 12.6857ARMENTIERES
14.7025LIENARD BENOIT44FRA2:08:522:08:534:47 12.5759ATHIES
15.7127VANTORRE FREDDY43FRAASSOCIATION PÉDESTRE DU 2:09:032:09:034:47 12.5560STEENWERCK
16.7023VERBRUGGHE XAVIER43FRA2:09:132:09:174:48 12.5365LABOURSE
17.7443ARSCHOOT SEBASTIEN41FRA2:09:172:09:184:48 12.5366BREBIERES
18.7150MARTEL GILLES49FRASAINT VENANT ATHLETISME2:09:292:09:324:48 12.5168SAINT FLORIS
19.7354ZALISZ STEPHANE44FRA2:09:272:09:364:48 12.5070LIEVIN
20.7139DEBARGE BRUNO46FRA2:09:502:09:514:49 12.4872BEUVRY
21.7119GODEFROY THIERRY49FRA2:10:172:10:274:50 12.4274HAILLICOURT
22.7375MONDO DAMIEN44FRA2:11:022:11:044:52 12.3679LORGIES
23.7559ROZMANOWSKI MICHAEL41FRARAISMES/VICOIGNES2:12:002:12:024:54 12.2782RAISMES
24.7530DACQUIN FABIEN46FRATEAM TRAIL 622:12:012:12:054:54 12.2783LONGFOSSÉ
25.7065DELAHAYE ERIC46FRA2:12:182:12:244:55 12.2486LAMBERSART
26.7033HEQUET OLIVIER42FRA2:12:212:12:584:56 12.1889AGNY
27.7414LORIDAN JEROME43FRATEAM RRM ANNEZIN2:13:092:13:104:56 12.1792VAUDRICOURT
28.7445TURPIN DAVID-MAURICE44FRARADICATRAIL2:13:262:13:424:58 12.1293ST NICOLAS DE LA TAILLE
29.7470THIBAUT PHILIPPE49FRATL 592:14:172:14:244:59 12.0595DUNKERQUE
30.7073BRINGUETZ MICHEL45FRALES FURETS CAUCHOIS2:14:232:14:445:00 12.0297CAUCHY A LA TOUR
31.7052CARLIER FRANCK41FRA2:14:462:14:465:00 12.0298HERSIN-COUPIGNY
32.7077DESCHAMPS EMMANUEL43FRA2:14:532:15:025:01 12.0099BETHUNE
33.7483DE MEERSCHMAN SEBASTIEN42FRAHEM AC2:14:442:15:065:01 11.99100ARMENTIERES
34.7195MILETTI GÉRALD41FRA2:15:552:16:085:03 11.90107VERSAILLES
35.7301HAVEZ TONY40FRASAINT VENANT ATHLÉTISME2:16:102:16:235:04 11.88109CALONNE SUR LA LYS
36.7220LORRIAUX GERALD41FRADIGEST SCIENCE2:16:152:16:265:04 11.87111LAMBERSART
37.7287POIRIER CHRISTIAN49FRAJOG ABLAIN2:16:152:16:295:04 11.87112ABLAIN SAINT NAZAIRE
38.7486TASSOU SEBASTIEN41FRA2:16:372:16:385:04 11.86116FRESNES SUR ESCAUT
39.7118GAUTHIER VINCENT40FRA2:16:562:17:065:05 11.82121BRUAY LABUISSIERE
40.7462POUILLY ERIC46FRATEAM RRM ANNEZIN2:17:202:17:215:06 11.80122BETHUNE
41.7080BOË YANNICK40FRA2:17:532:17:575:07 11.74133NOYELLES LES VERMELLES
42.7580GRANADO JEAN BAPTISTE42FRAHENIN ENDURANCE TEAM2:18:132:18:455:09 11.68138HENIN BEAUMONT
43.7546CAINE FREDERIC43FRA2:19:092:19:235:10 11.62139LIEVIN
44.7586LETAILLE CÉDRIC42FRAARTOIS ATHLETISME2:18:552:19:275:10 11.62140HAILLICOURT
45.7358MENBEUF CHRISTOPHE44FRAJOGGING CROSS BULLY2:19:162:19:425:11 11.60142NOEUX LES MINES
46.7347BIZET NICOLAS48FRAJOG ABLAIN2:19:372:19:505:11 11.59143ST LAURENT BLANGY
46.7365LAMORSKI PHILIPPE42FRAJC LAPUGNOY2:19:302:19:505:11 11.59143LAPUGNOY
48.7540VENEL JEAN FRANCOIS43FRATEAM RRM ANNEZIN2:19:572:19:575:11 11.58146VAUDRICOURT
49.7007DUCATEZ ARNAUD41FRA2:19:502:20:135:12 11.55151BRUAY LA BUISSIÈRE
50.7135COLPAERT LAURENT45FRACOURIR AU MONT DES CATS2:20:142:20:295:13 11.53152BAILLEUL
51.7361FRANCKE DANIEL46FRAC.O.THRITH ATHLÉTISME2:20:312:20:335:13 11.53153FAMARS
52.7325HERBIN PHILIPPE44FRACH'TI MARATHONIEN WALLERS2:20:352:20:395:13 11.52155WALLERS
53.7314FARDEL DAVID41FRA2:20:222:20:405:13 11.52156LA GORGUE
54.7434DELIERS VINCENT41FRATEAM RRM ANNEZIN2:20:442:20:465:13 11.51157HINGES
55.7138CARLIER GUILLAUME43FRAA.J.C.FRELINGHIEN2:21:112:21:115:14 11.48159HOUPLINES
56.7345DUMORTIER CHRISTOPHE48FRA2:21:042:21:235:15 11.46162HAILLICOURT
57.7129LEPRETRE JOHAN41FRA2:21:292:21:425:15 11.43163ISBERGUES
58.7271DELGRANGE STÉPHANE41FRA2:21:472:22:175:17 11.39168HOUPLIN-ANCOISNE
59.7232ROUX PASCAL41FRAPASS RUNNING2:22:172:22:345:17 11.36172RETHEL
60.7284FRANCOIS PHILIPPE43FRA2:22:362:22:415:18 11.35176GRENAY
61.7581GRUMERMER CHRISTOPHE42FRA2:22:402:22:415:18 11.35177RAISMES
62.7374CANDELIER YANN44FRA2:23:002:23:345:20 11.29183HABARCQ
63.7200BRACKE HERVE42FRA2:23:192:23:385:20 11.28184MONS EN BAROEUL
64.7114DERHILLE CHRISTOPHE45FRALES COP1 DABORD2:23:392:23:545:20 11.26188QUAEDYPRE
65.7058BECUWE DAVID46FRALES COP1 D ABORD2:23:392:23:565:20 11.26189REXPOEDE
66.7006LELEU VINCENT43FRA2:24:172:24:365:22 11.20195HAILLICOURT
67.7597TRANCHANT BERTRAND43FRACOACH SPORT SANTE2:24:302:25:015:23 11.17197HENIN BEAUMONT
68.7056GAJEWSKI DAVID45FRAARTOIS ATHLÉTISME2:24:312:25:065:23 11.17198AUCHEL
69.7577FRUCHART CLAUDE45FRA2:25:132:25:275:24 11.14201BUSNES
70.7512LEROY MAURICE-HENRI49FRAPASS'RUNING2:25:182:25:575:25 11.10206LAMBRES LEZ DOUAI
71.7281ZAKRZEWSKI CHRISTOPHE46FRAUSAL2:26:052:26:195:26 11.07211ABLAIN SAINT NAZAIRE
72.7429CLAY VINCENT43FRA2:26:242:26:275:26 11.06213BETHONSART
73.7242PLACE GREGORY44FRACLUB FC BOURS2:26:352:26:475:27 11.04215VALHUON
74.7497HURTH DENIS47FRAHERLIES2:26:422:27:065:27 11.01216AUBERS
75.7020HOVE PHILIPPE47FRATOLATHLON2:27:102:27:205:28 11.00218BRUAY LA BUISSIÈRE
76.7357DUBOIS OLIVIER46FRATRIATHLON HAZEBROUCK2:27:552:27:555:29 10.95222BAILLEUL
77.7246MESGUEN NICOLAS40FRA2:27:342:28:025:29 10.94224VILLENEUVE D'ASCQ
78.7519HEBDA MAXIME44FRA2:28:262:28:325:31 10.91227BOUVIGNY BOYEFFLES
79.7263RICART MAXIME41FRAPASS'RUNNING2:28:342:28:385:31 10.90228ANZIN SAINT AUBIN
80.7133THOREZ REGIS42FRA2:28:202:28:435:31 10.89229LESTREM
81.7542FLAMME LAURENT45FRAUSL LEFFRINCKOUCKE2:29:112:29:305:33 10.84236ARLEUX EN GOHELLE
82.7475CHATELAIN STÉPHANE42FRAMARLES-RUNNING2:29:152:29:445:33 10.82237MARLES LES MINES
83.7124LOURDEL GREGORY44FRASLIPFAST2:29:462:30:025:34 10.80239DURY
84.7388REGNIEZ JEROME40FRAHAZEBROUCK TRI2:29:492:30:115:34 10.79240RENESCURE
85.7189BENALLAL MOHAMED49FRA2:30:202:30:205:35 10.78241BRUAY LA BUISSIERE
86.7315BECLIN JEROME42FRAO.A.HAZEBROUCK2:30:562:31:025:36 10.73250CAESTRE
87.7012DELABRE GRÉGORY43FRATRAILRUNNERFONDATION2:31:062:31:215:37 10.70252AVION
88.7152DEMAZURE ERIC42FRAVERMELLES AC2:31:092:31:385:37 10.68253VERMELLES
89.7476LEBAS ERIC46FRATEAM TRAIL 622:31:332:31:425:38 10.68254MENNEVILLE
90.7296BOUTRY MARTIN40FRATEAM TIBET LIBRE2:31:232:32:035:38 10.65258SAINT JANS CAPPEL
91.7062ZULIANI EDDY44FRA2:32:142:32:265:39 10.63262BAPAUME
92.7100MESPLOMB MERRY49FRAACVA2:32:162:32:375:40 10.62264MARQUETTE LEZ LILLE
93.7386PARMENT FABIEN45FRA2:32:162:32:435:40 10.61265BRUAY LA BUISSIERE
94.7400MISBARE FRANCK43FRALONGUENESSE NATURE AVENTU2:32:552:32:585:40 10.59266SAINT-OMER
95.7046COLOMB BERTRAND40FRA2:32:502:33:105:41 10.58267ANZIN SAINT AUBIN
96.7552DUMETZ PASCAL47FRA0620482:32:402:33:145:41 10.57268DROUVIN LE MARAIS
97.7384DROQUE PASCAL49FRALES COURANTS D'AIR2:33:142:33:215:41 10.56270VALHUON
98.7477GRESSIER YANNICK47FRATEAM TRAIL 622:33:322:33:415:42 10.54274ZOTEUX
99.7258ANDRIEUX JOEL45FRA2:33:242:33:565:43 10.52278DESVRES
100.7381BAR EDDY44FRATEAM RRM ANNEZIN2:34:052:34:055:43 10.51280ANNEZIN
101.7489DEKEISTER DAMIEN44FRA2:34:192:34:335:44 10.48287WORMHOUT
102.7103WEPIERRE OLIVIER46FRAOA HAZEBROUCK2:34:472:34:545:45 10.46292HAZEBROUCK
103.7366CHARASSON PASCAL43FRA2:34:282:35:035:45 10.45293LOISON SOUS LENS
104.7026HENNION PHILIPPE47FRA2:35:162:35:265:46 10.42296LAPUGNOY
105.7430CARDIN PATRICE49FRA0620142:35:132:35:315:46 10.42297ARRAS
106.7353MIELOCH YOHANN43FRA2:35:062:35:335:46 10.42298TILLOY LES HERMAVILLE
107.7148LECOEUVRE SERGE49FRACOURIR À BAISIEUX2:35:332:35:465:47 10.40300WANNEHAIN
108.7334GOUIN MICKAEL41FRAVILLENEUVE D ASCQ FRETIN 2:35:262:35:485:47 10.40301MONS EN BAROEUL
109.7063AMOUROUX MARC41FRA2:35:152:35:515:47 10.40302COMINES
110.7407SZRAMA OLIVIER40FRA2:35:122:35:535:47 10.39303CARVIN
111.7340SERET GAETAN43FRAACVA2:35:382:36:015:47 10.38305LYS LEZ LANNOY
112.7092BOURRE FABRICE47FRAASSOCIATION DES COUREURS 2:35:592:36:145:48 10.37306VERQUIN
113.7043BADI DERRY43FRACOURIR A MERVILLE2:36:132:36:465:49 10.33308MERVILLE
114.7011VANDOOREN MICHEL43FRARCA TRIATHLON2:36:552:37:205:50 10.30311ANZIN SAINT AUBIN
115.7005LEMAITRE FRANCK45FRA2:37:162:37:205:50 10.30312LAPUGNOY
116.7420DILLY OLIVIER40FRA0591452:37:132:37:515:51 10.26313MONTIGNY EN GOHELLE
117.7204LAUWERS LUDOVIC47FRASECTION TRAIL VAFA2:37:572:38:275:53 10.22317WAMBRECHIES
118.7031LULKA DAVID42FRA2:38:332:38:595:54 10.19320MARLES LES MINES
119.7562PRINCE ERIC45FRACOACH SPORT SANTÉ2:38:242:38:595:54 10.19321MONTIGNY EN GOHELLE
120.7368DELBAR THIERRY48FRACOURIR A BAISIEUX2:38:532:39:075:54 10.18323BAISIEUX
121.7576SYLLA MARC45FRA2:38:582:39:335:55 10.15326CAMBRAI
122.7184FLAJOLET HERVE43FRA2:39:382:39:455:55 10.14328SAINT VENANT
123.7501MEEUS OLIVIER48FRAHENIN ENDURANCE TEAM2:39:382:40:175:57 10.11335DOURGES
124.7141ROBILLARD MICHEL46FRAARTOIS ATLHETISME2:40:252:40:405:58 10.08337MAISNIL LES RUITZ
125.7447CATTEZ FABIEN45FRAHERLIES2:40:432:41:055:58 10.06339AUBERS
126.7493OVION SYLVESTRE45FRAACCAPELLOIS2:40:252:41:085:59 10.05340HENNEVEUX
127.7484CHANTY THOMAS40FRA2:40:502:41:115:59 10.05341PREMESQUES
128.7461HANC GREGORY41FRACOACH SPORT SANTE2:40:532:41:305:59 10.03343HENIN BEAUMONT
129.7352BRUNEEL ARNAUD44FRACALH JOGGING HERLIES2:41:382:42:036:01 10.00347HERLIES
130.7534BREQUEVILLE LIONEL45FRAAC CAPELLOIS2:42:342:43:166:03 9.92351NESLES
131.7324JONVILLE ARMAND49FRA2:43:232:43:296:04 9.91352MOUVAUX
132.7316CHEVALIER CHRISTOPHE40FRA2:43:162:43:586:05 9.88355ALLOUAGNE
133.7328BERTIER BENOÎT49FRAAJCF FRELINGHIEN2:44:392:44:396:06 9.84359FRELINGHIEN
134.7385SAGNIER OLIVIER40FRA2:44:062:44:446:07 9.83361HENIN BEAUMONT
135.7553DURAND PASCAL40FRA2:45:562:46:246:10 9.74368ROBECQ
136.7014FRANCOIS LOUIS41FRA2:47:202:47:276:13 9.67378VILLENEUVE D'ASCQ
137.7076DEBOUVERIE FRANCK46FRA2:47:392:47:566:14 9.65383LESTREM
138.7508LESNIAK PHILIPPE44FRAHENIN ENDURANCE TEAM2:47:432:48:246:15 9.62384HENIN BEAUMONT
139.7216BETENCOURT THIERRY41FRAAC CAPELLOIS2:48:052:48:486:16 9.60390LA CAPELLE LES BOULOGNE
140.7060LOHEZ MARC48FRA2:49:172:49:526:18 9.54401WINGLES
141.7117GARÉNAUX STÉPHANE49FRAPATRIOTE CROSS GUINES2:49:072:49:546:18 9.54402CALAIS
142.7003DEFRANCE EMMANUEL47FRA2:50:312:50:566:20 9.48407GONNEHEM
143.7067PRUVOST PATRICK45FRA2:51:052:51:146:21 9.46410CAMPS EN AMIENOIS
144.7221DEPOILLY PHILIPPE46FRA2:51:152:51:226:21 9.45413BEAUCHAMPS
145.7253LÉVÊQUE BERTRAND42FRA2:51:302:51:396:22 9.44415VERQUIN
146.7571AMEL BOUMEDIENNE48FRARANDONNEURS HERSINOIS2:51:122:51:476:22 9.43416HERSIN COUPIGNY
147.7410DELLACHERIE ARNAUD40FRAEQUIPE CH'TI DEAF RUNNER2:51:362:52:066:23 9.41418VENDEVILLE
148.7190FLOUR YANNICK49FRA2:52:022:52:146:23 9.41419LE SARS
149.7131CHENET HERVE48FRA2:52:042:52:176:23 9.40420HELLEMMES
150.7130DESOUTTER LAURENT43FRALONGUENESSE NATURE AVENTU2:55:082:55:226:30 9.24433SAINTE MARIE KERQUE
151.7396LALEUW LUDOVIC46FRA2:55:152:55:586:32 9.21437LOOS
152.7158GUYOT LUDOVIC44FRAARTOIS ATHLÉTISME2:55:482:56:246:32 9.18440CALONNE RICOUART
153.7594SCARSO MARIO46FRA2:56:522:57:176:34 9.14445VERMELLES
154.7544BEAURIN DIDIER48FRAVAL DE SOMME2:57:132:57:366:35 9.12448SAINT-OUEN
155.7518PLATIAU ALEXIS48FRATEAM TIBET LIBRE2:57:132:57:526:36 9.11450GOSNAY
156.7202LEFEBVRE DAMIEN45FRA2:57:572:58:356:37 9.07454TEMPLEUVE
157.7041RAGO JEAN-LUC48FRAAC CAMBRAI2:59:112:59:146:39 9.04456NOYELLES-SUR-ESCAUT
158.7047LEFEBVRE GREGORY47FRAARTOIS ATHLÉTISME2:58:542:59:286:39 9.0345962199
159.7426BLOND GRÉGORY41FRATRIATHLON MONTREUIL2:59:162:59:456:40 9.01464VERTON
160.7595SIMONET JEAN-PHILIPPE43FRAARTOIS ATHLETISME3:01:323:01:536:45 8.91474FOUQUIÉRES LES BETHUNE
161.7307CUVELIER FRANCK42FRA3:01:393:02:126:45 8.89475HEM
162.7161BERTHE THIERRY48FRA3:13:003:13:007:09 8.39491ANNEZIN
163.7055LEGRAIN THIERRY47FRA3:16:123:16:387:17 8.24501WITTES
DNF7547CAUDRON JEROME40FRAWANQUETIN
DNF7061CHARLET SEBASTIEN42FRAPLANETE RUNNINGGONDECOURT
DNF7247DEWOLF FABRICE47FRALIEVIN
DNF7390DIEUDONNE MICKAEL41FRACPSS CARVINOIGNIES
DNF7520LECHAT SEBASTIEN41FRAAIX NOULETTE
DNF7349LECLERCQ JEAN LUC46FRA062048 ARTOIS ATHLETISMEOBLINGHEM
DNF: abandon; DSQ: disqualifié; Vitesse en km/h
Page: [1]